Terminal Aerodrome Forecast
Issued by NWS

Home | Current Version | Previous Version | Text Only | Print | Product List | Glossary On
Versions: 1 2 3 4 5 6 7 8 9 10 11 12 13 14 15 16 17 18 19 20 21 22 23 24
000
FTUS45 KBOI 042330
TAFTWF
TAF
KTWF 042330Z 0500/0524 31006KT P6SM SCT100 BKN150
     FM050400 22013KT P6SM SCT090 BKN120
      TEMPO 0505/0508 27020G35KT 6SM BLDU BKN070
     FM051700 26014G20KT P6SM SCT100 BKN150=

USA.gov is the U.S. government's official web portal to all federal, state and local government web resources and services.